Location: Home
(42.5358°N, 72.7383°W)
Time: 15:47:56
(UTC-05:00)

Vanguard 1 - Pass Details

Date: 01 December 2021
Orbit: 652 x 3830 km, 34.2° (Epoch: 19 January)

Event Time Altitude Azimuth Distance (km) Brightness Sun altitude
Rises 01:09:28 0° 244° (WSW) 7,654 - -62.1°
Reaches altitude 10° 01:14:29 10° 241° (WSW) 6,806 - -61.4°
Maximum altitude 01:37:31 63° 168° (SSE) 3,844 - -57.9°
Exits shadow 01:42:47 53° 123° (ESE) 3,858 12.8 -57.1°
Drops below altitude 10° 01:54:56 10° 93° (E) 5,363 14.1 -55.1°
Sets 01:58:20 0° 90° (E) 6,032 14.6 -54.6°
